Time,TemperatureF,DewpointF,PressureIn,WindDirection,WindDirectionDegrees,WindSpeedMPH,WindSpeedGustMPH,Humidity,HourlyPrecipIn,Conditions,Clouds,dailyrainin,SoftwareType,DateUTC
2013-01-21 00:00:00,15.3,0.8,30.20,WSW,242,9.8,13.4,52,0.00,,SCT075,0.00,VWS V14.00,2013-01-21 06:00:00,
2013-01-21 00:10:00,15.3,0.8,30.20,West,272,17.4,17.4,52,0.00,,CLR,0.00,VWS V14.00,2013-01-21 06:10:00,
2013-01-21 00:20:00,12.7,-0.8,30.20,West,267,8.1,17.4,54,0.00,,CLR,0.00,VWS V14.00,2013-01-21 06:20:00,
2013-01-21 00:30:00,12.7,-0.8,30.17,West,263,16.1,16.6,54,0.00,,CLR,0.00,VWS V14.00,2013-01-21 06:30:00,
2013-01-21 00:40:00,12.6,-0.9,30.17,West,267,12.5,20.1,54,0.00,,CLR,0.00,VWS V14.00,2013-01-21 06:40:00,
2013-01-21 00:50:00,12.2,-1.3,30.17,West,270,7.2,16.1,54,0.00,,CLR,0.00,VWS V14.00,2013-01-21 06:50:00,
2013-01-21 01:00:00,12.0,-1.4,30.17,West,267,8.1,13.4,54,0.00,,CLR,0.00,VWS V14.00,2013-01-21 07:00:00,
2013-01-21 01:10:00,12.0,-1.4,30.17,West,278,12.5,14.3,54,0.00,,CLR,0.00,VWS V14.00,2013-01-21 07:10:00,
2013-01-21 01:20:00,12.0,-1.4,30.17,West,263,9.8,12.5,54,0.00,,CLR,0.00,VWS V14.00,2013-01-21 07:20:00,
2013-01-21 01:40:00,11.8,-1.6,30.17,West,270,10.7,21.0,54,0.00,,BKN025,0.00,VWS V14.00,2013-01-21 07:40:00,
2013-01-21 01:50:00,11.8,-1.6,30.17,West,263,18.3,20.1,54,0.00,,OVC031,0.00,VWS V14.00,2013-01-21 07:50:00,
2013-01-21 02:00:00,12.0,-1.4,30.17,West,263,16.6,21.9,54,0.00,,OVC031,0.00,VWS V14.00,2013-01-21 08:00:00,
2013-01-21 02:10:00,12.2,-1.3,30.17,WSW,248,8.1,17.4,54,0.00,,OVC027,0.00,VWS V14.00,2013-01-21 08:10:00,
2013-01-21 02:20:00,12.2,-1.3,30.17,West,279,10.7,16.6,54,0.00,,OVC027,0.00,VWS V14.00,2013-01-21 08:20:00,
2013-01-21 02:30:00,12.2,-1.3,30.17,WNW,288,8.9,16.6,54,0.00,,OVC027,0.00,VWS V14.00,2013-01-21 08:30:00,
2013-01-21 02:40:00,12.0,-1.4,30.17,WNW,303,10.7,16.1,54,0.00,,OVC027,0.00,VWS V14.00,2013-01-21 08:40:00,
2013-01-21 02:50:00,12.0,-1.4,30.17,WNW,282,10.7,18.3,54,0.00,,,0.00,VWS V14.00,2013-01-21 08:50:00,
2013-01-21 03:00:00,12.0,-1.4,30.17,West,263,12.5,17.4,54,0.00,,,0.00,VWS V14.00,2013-01-21 09:00:00,
2013-01-21 03:10:00,12.0,-1.4,30.14,WSW,246,7.2,20.1,54,0.00,,,0.00,VWS V14.00,2013-01-21 09:10:00,
2013-01-21 03:20:00,12.2,-1.3,30.14,West,278,12.5,21.9,54,0.00,,,0.00,VWS V14.00,2013-01-21 09:20:00,
2013-01-21 03:30:00,12.4,-1.1,30.14,West,279,15.2,19.2,54,0.00,,,0.00,VWS V14.00,2013-01-21 09:30:00,
2013-01-21 03:40:00,12.6,-0.9,30.14,WSW,243,9.8,16.1,54,0.00,,OVC033,0.00,VWS V14.00,2013-01-21 09:40:00,
2013-01-21 03:50:00,12.2,-1.3,30.14,West,278,9.8,16.6,54,0.00,,,0.00,VWS V14.00,2013-01-21 09:50:00,
2013-01-21 04:00:00,12.2,-1.3,30.14,WSW,256,11.6,16.1,54,0.00,,OVC037,0.00,VWS V14.00,2013-01-21 10:00:00,
2013-01-21 04:10:00,12.2,-1.3,30.14,West,267,5.4,16.1,54,0.00,,OVC037,0.00,VWS V14.00,2013-01-21 10:10:00,
2013-01-21 04:20:00,12.2,-1.3,30.14,West,263,8.1,15.2,54,0.00,,OVC037,0.00,VWS V14.00,2013-01-21 10:20:00,
2013-01-21 04:30:00,12.2,-1.3,30.14,WNW,293,10.7,17.4,54,0.00,,OVC043,0.00,VWS V14.00,2013-01-21 10:30:00,
2013-01-21 04:40:00,12.0,-1.4,30.14,West,267,13.4,16.6,54,0.00,,OVC043,0.00,VWS V14.00,2013-01-21 10:40:00,
2013-01-21 04:50:00,11.8,-1.6,30.14,West,280,10.7,16.1,54,0.00,,BKN043,0.00,VWS V14.00,2013-01-21 10:50:00,
2013-01-21 05:00:00,11.8,-1.6,30.11,WSW,252,12.5,15.2,54,0.00,,BKN043,0.00,VWS V14.00,2013-01-21 11:00:00,
2013-01-21 05:10:00,11.8,-1.6,30.11,West,281,8.9,15.2,54,0.00,,OVC043,0.00,VWS V14.00,2013-01-21 11:10:00,
2013-01-21 05:20:00,11.8,-1.6,30.11,WNW,287,14.3,16.6,54,0.00,,OVC043,0.00,VWS V14.00,2013-01-21 11:20:00,
2013-01-21 05:30:00,11.5,-1.9,30.11,West,263,12.5,21.0,54,0.00,,OVC043,0.00,VWS V14.00,2013-01-21 11:30:00,
2013-01-21 05:40:00,11.3,-2.1,30.11,WSW,250,9.8,21.9,54,0.00,,OVC043,0.00,VWS V14.00,2013-01-21 11:40:00,
2013-01-21 05:50:00,10.9,-2.4,30.11,West,263,11.6,24.6,54,0.00,,OVC043,0.00,VWS V14.00,2013-01-21 11:50:00,
2013-01-21 06:00:00,10.4,-2.9,30.11,WNW,284,11.6,26.4,54,0.00,,OVC043,0.00,VWS V14.00,2013-01-21 12:00:00,
2013-01-21 06:10:00,10.2,-3.1,30.11,WNW,282,10.7,21.0,54,0.00,,OVC039,0.00,VWS V14.00,2013-01-21 12:10:00,
2013-01-21 06:20:00,9.7,-3.6,30.11,WNW,282,12.5,20.1,54,0.00,,OVC039,0.00,VWS V14.00,2013-01-21 12:20:00,
2013-01-21 06:30:00,9.1,-4.1,30.14,West,272,16.6,17.4,54,0.00,,SCT041,0.00,VWS V14.00,2013-01-21 12:30:00,
2013-01-21 06:40:00,9.1,-4.1,30.14,WNW,282,9.8,20.1,54,0.00,,SCT041,0.00,VWS V14.00,2013-01-21 12:40:00,
2013-01-21 06:50:00,8.8,-4.5,30.14,WSW,247,16.6,21.0,54,0.00,,CLR,0.00,VWS V14.00,2013-01-21 12:50:00,
2013-01-21 07:00:00,8.8,-4.5,30.14,West,263,14.3,25.5,54,0.00,,CLR,0.00,VWS V14.00,2013-01-21 13:00:00,
2013-01-21 07:10:00,8.8,-4.5,30.14,WNW,302,12.5,21.9,54,0.00,,SCT029,0.00,VWS V14.00,2013-01-21 13:10:00,
2013-01-21 07:20:00,8.8,-4.5,30.14,West,271,17.4,29.1,54,0.00,,SCT029,0.00,VWS V14.00,2013-01-21 13:20:00,
2013-01-21 07:30:00,8.8,-4.5,30.14,West,274,15.2,25.5,54,0.00,,BKN029,0.00,VWS V14.00,2013-01-21 13:30:00,
2013-01-21 07:40:00,8.8,-4.5,30.14,West,273,12.5,21.9,54,0.00,,BKN029,0.00,VWS V14.00,2013-01-21 13:40:00,
2013-01-21 07:50:00,6.4,-6.7,30.14,West,263,15.2,20.1,54,0.00,,SCT031,0.00,VWS V14.00,2013-01-21 13:50:00,
2013-01-21 08:00:00,6.3,-6.8,30.14,West,280,11.6,23.7,54,0.00,,CLR,0.00,VWS V14.00,2013-01-21 14:00:00,
2013-01-21 08:10:00,6.3,-6.8,30.17,WNW,294,25.5,25.5,54,0.00,,CLR,0.00,VWS V14.00,2013-01-21 14:10:00,
2013-01-21 08:20:00,6.3,-6.8,30.17,West,274,15.2,25.5,54,0.00,,CLR,0.00,VWS V14.00,2013-01-21 14:20:00,
2013-01-21 08:30:00,6.4,-6.7,30.17,WNW,299,21.9,24.6,54,0.00,,CLR,0.00,VWS V14.00,2013-01-21 14:30:00,
2013-01-21 08:40:00,6.4,-6.7,30.17,West,267,20.1,25.5,54,0.00,,CLR,0.00,VWS V14.00,2013-01-21 14:40:00,
2013-01-21 08:50:00,6.4,-6.7,30.17,West,260,16.6,26.4,54,0.00,,CLR,0.00,VWS V14.00,2013-01-21 14:50:00,
2013-01-21 09:00:00,6.4,-6.7,30.17,WNW,291,11.6,27.3,54,0.00,,SCT025,0.00,VWS V14.00,2013-01-21 15:00:00,
2013-01-21 09:10:00,6.3,-6.8,30.17,NW,306,20.1,30.9,54,0.00,,SCT025,0.00,VWS V14.00,2013-01-21 15:10:00,
2013-01-21 09:20:00,6.1,-7.0,30.17,West,277,21.0,30.9,54,0.00,,SCT025,0.00,VWS V14.00,2013-01-21 15:20:00,
2013-01-21 09:30:00,6.3,-6.8,30.20,West,267,17.4,26.4,54,0.00,,SCT025,0.00,VWS V14.00,2013-01-21 15:30:00,
2013-01-21 09:40:00,6.4,-6.7,30.20,WNW,294,12.5,26.4,54,0.00,,SCT025,0.00,VWS V14.00,2013-01-21 15:40:00,
2013-01-21 09:50:00,6.8,-6.3,30.20,West,267,16.1,26.4,54,0.00,,BKN025,0.00,VWS V14.00,2013-01-21 15:50:00,
2013-01-21 10:00:00,6.4,-6.7,30.20,WNW,287,12.5,26.4,54,0.00,,BKN025,0.00,VWS V14.00,2013-01-21 16:00:00,
2013-01-21 10:10:00,6.8,-6.3,30.20,WNW,293,11.6,24.6,54,0.00,,SCT025,0.00,VWS V14.00,2013-01-21 16:10:00,
2013-01-21 10:20:00,6.8,-6.3,30.20,NW,310,12.5,21.9,54,0.00,,SCT025,0.00,VWS V14.00,2013-01-21 16:20:00,
2013-01-21 10:30:00,6.6,-6.5,30.20,NW,305,11.6,21.0,54,0.00,,SCT025,0.00,VWS V14.00,2013-01-21 16:30:00,
2013-01-21 10:40:00,7.2,-6.0,30.20,WNW,288,16.1,21.0,54,0.00,,SCT027,0.00,VWS V14.00,2013-01-21 16:40:00,
2013-01-21 10:50:00,6.6,-6.5,30.20,WNW,285,21.0,30.0,54,0.00,,SCT027,0.00,VWS V14.00,2013-01-21 16:50:00,
2013-01-21 11:00:00,6.8,-6.3,30.20,WNW,293,15.2,23.7,54,0.00,,SCT027,0.00,VWS V14.00,2013-01-21 17:00:00,
2013-01-21 11:10:00,7.3,-5.8,30.20,West,273,26.4,26.4,54,0.00,,SCT029,0.00,VWS V14.00,2013-01-21 17:10:00,
2013-01-21 11:20:00,6.8,-6.3,30.20,WNW,297,16.1,32.7,54,0.00,,SCT029,0.00,VWS V14.00,2013-01-21 17:20:00,
2013-01-21 11:30:00,7.3,-5.8,30.20,West,280,11.6,22.8,54,0.00,,BKN029,0.00,VWS V14.00,2013-01-21 17:30:00,
2013-01-21 11:40:00,7.0,-6.1,30.20,WNW,282,17.4,24.6,54,0.00,,BKN029,0.00,VWS V14.00,2013-01-21 17:40:00,
2013-01-21 11:50:00,6.4,-6.7,30.20,WNW,288,11.6,23.7,54,0.00,,SCT110,0.00,VWS V14.00,2013-01-21 17:50:00,
2013-01-21 12:00:00,6.4,-6.7,30.20,WSW,250,12.5,25.5,54,0.00,,SCT110,0.00,VWS V14.00,2013-01-21 18:00:00,
2013-01-21 12:10:00,7.2,-6.0,30.20,West,279,16.6,34.0,54,0.00,,SCT031,0.00,VWS V14.00,2013-01-21 18:10:00,
2013-01-21 12:20:00,7.5,-5.6,30.20,WNW,288,21.0,26.4,54,0.00,,SCT031,0.00,VWS V14.00,2013-01-21 18:20:00,
2013-01-21 12:30:00,7.9,-5.3,30.20,West,277,13.4,26.4,54,0.00,,SCT031,0.00,VWS V14.00,2013-01-21 18:30:00,
2013-01-21 12:40:00,8.1,-5.1,30.20,West,275,21.9,30.0,54,0.00,,SCT110,0.00,VWS V14.00,2013-01-21 18:40:00,
2013-01-21 12:50:00,8.4,-4.8,30.20,West,281,11.6,28.2,54,0.00,,CLR,0.00,VWS V14.00,2013-01-21 18:50:00,
2013-01-21 13:00:00,8.4,-4.8,30.20,WNW,302,14.3,25.5,54,0.00,,CLR,0.00,VWS V14.00,2013-01-21 19:00:00,
2013-01-21 13:10:00,8.6,-4.6,30.20,SW,236,17.4,25.5,54,0.00,,CLR,0.00,VWS V14.00,2013-01-21 19:10:00,
2013-01-21 13:20:00,9.1,-4.1,30.20,West,279,11.6,24.6,54,0.00,,CLR,0.00,VWS V14.00,2013-01-21 19:20:00,
2013-01-21 13:30:00,9.0,-4.3,30.17,WNW,287,7.2,31.8,54,0.00,,CLR,0.00,VWS V14.00,2013-01-21 19:30:00,
2013-01-21 13:40:00,9.3,-4.0,30.17,West,281,15.2,26.4,54,0.00,,CLR,0.00,VWS V14.00,2013-01-21 19:40:00,
2013-01-21 13:50:00,9.3,-4.0,30.17,West,277,21.0,27.3,54,0.00,,CLR,0.00,VWS V14.00,2013-01-21 19:50:00,
2013-01-21 14:00:00,9.7,-3.6,30.17,West,280,9.8,26.4,54,0.00,,CLR,0.00,VWS V14.00,2013-01-21 20:00:00,
2013-01-21 14:10:00,9.9,-3.5,30.17,West,273,16.1,23.7,54,0.00,,CLR,0.00,VWS V14.00,2013-01-21 20:10:00,
2013-01-21 14:20:00,10.6,-2.8,30.17,WNW,283,17.4,17.4,54,0.00,,CLR,0.00,VWS V14.00,2013-01-21 20:20:00,
2013-01-21 14:30:00,9.9,-3.5,30.17,WNW,289,16.1,26.4,54,0.00,,CLR,0.00,VWS V14.00,2013-01-21 20:30:00,
2013-01-21 14:40:00,10.0,-3.3,30.17,West,270,23.7,25.5,54,0.00,,CLR,0.00,VWS V14.00,2013-01-21 20:40:00,
2013-01-21 14:50:00,9.9,-3.5,30.17,West,272,25.5,26.4,54,0.00,,CLR,0.00,VWS V14.00,2013-01-21 20:50:00,
2013-01-21 15:00:00,10.0,-3.3,30.20,WNW,290,16.1,30.9,54,0.00,,CLR,0.00,VWS V14.00,2013-01-21 21:00:00,
2013-01-21 15:10:00,10.0,-3.3,30.20,WSW,255,16.1,26.4,54,0.00,,CLR,0.00,VWS V14.00,2013-01-21 21:10:00,
2013-01-21 15:20:00,10.0,-3.3,30.20,West,273,12.5,29.1,54,0.00,,CLR,0.00,VWS V14.00,2013-01-21 21:20:00,
2013-01-21 15:30:00,9.9,-3.5,30.20,West,274,16.6,30.0,54,0.00,,CLR,0.00,VWS V14.00,2013-01-21 21:30:00,
2013-01-21 15:40:00,9.5,-3.8,30.20,West,267,17.4,24.6,54,0.00,,CLR,0.00,VWS V14.00,2013-01-21 21:40:00,
2013-01-21 15:50:00,9.7,-3.6,30.20,West,271,16.1,25.5,54,0.00,,CLR,0.00,VWS V14.00,2013-01-21 21:50:00,
2013-01-21 16:00:00,9.5,-3.8,30.20,WSW,253,11.6,21.0,54,0.00,,CLR,0.00,VWS V14.00,2013-01-21 22:00:00,
2013-01-21 16:10:00,9.5,-3.8,30.20,SW,236,24.6,24.6,54,0.00,,CLR,0.00,VWS V14.00,2013-01-21 22:10:00,
2013-01-21 16:20:00,9.3,-4.0,30.20,WNW,282,12.5,24.6,54,0.00,,CLR,0.00,VWS V14.00,2013-01-21 22:20:00,
2013-01-21 16:30:00,9.1,-4.1,30.20,WNW,286,16.6,25.5,54,0.00,,CLR,0.00,VWS V14.00,2013-01-21 22:30:00,
2013-01-21 16:40:00,8.8,-4.5,30.20,WSW,252,23.7,25.5,54,0.00,,CLR,0.00,VWS V14.00,2013-01-21 22:40:00,
2013-01-21 16:50:00,8.6,-4.6,30.20,WNW,288,12.5,23.7,54,0.00,,CLR,0.00,VWS V14.00,2013-01-21 22:50:00,
2013-01-21 17:00:00,8.1,-5.1,30.20,West,267,10.7,23.7,54,0.00,,CLR,0.00,VWS V14.00,2013-01-21 23:00:00,
2013-01-21 17:10:00,7.9,-5.3,30.20,WNW,284,15.2,24.6,54,0.00,,CLR,0.00,VWS V14.00,2013-01-21 23:10:00,
2013-01-21 17:20:00,7.7,-5.5,30.20,West,278,17.4,21.0,54,0.00,,CLR,0.00,VWS V14.00,2013-01-21 23:20:00,
2013-01-21 17:30:00,7.5,-5.6,30.20,WNW,284,10.7,25.5,54,0.00,,CLR,0.00,VWS V14.00,2013-01-21 23:30:00,
2013-01-21 17:40:00,7.3,-5.8,30.20,WNW,284,16.1,21.0,54,0.00,,CLR,0.00,VWS V14.00,2013-01-21 23:40:00,
2013-01-21 17:50:00,7.2,-6.0,30.20,West,271,16.1,26.4,54,0.00,,CLR,0.00,VWS V14.00,2013-01-21 23:50:00,
2013-01-21 18:00:00,7.0,-6.1,30.20,WNW,298,16.1,21.9,54,0.00,,CLR,0.00,VWS V14.00,2013-01-22 00:00:00,
2013-01-21 18:10:00,6.8,-6.3,30.20,WNW,286,8.1,24.6,54,0.00,,CLR,0.00,VWS V14.00,2013-01-22 00:10:00,
2013-01-21 18:20:00,6.8,-6.3,30.20,West,280,10.7,21.9,54,0.00,,CLR,0.00,VWS V14.00,2013-01-22 00:20:00,
2013-01-21 18:30:00,6.8,-6.3,30.23,WNW,284,15.2,23.7,54,0.00,,CLR,0.00,VWS V14.00,2013-01-22 00:30:00,
2013-01-21 18:40:00,6.8,-6.3,30.23,WNW,287,10.7,26.4,54,0.00,,CLR,0.00,VWS V14.00,2013-01-22 00:40:00,
2013-01-21 18:50:00,6.6,-6.5,30.23,WNW,285,11.6,17.4,54,0.00,,CLR,0.00,VWS V14.00,2013-01-22 00:50:00,
2013-01-21 19:00:00,6.4,-6.7,30.23,West,274,24.6,24.6,54,0.00,,CLR,0.00,VWS V14.00,2013-01-22 01:00:00,
2013-01-21 19:10:00,6.4,-6.7,30.23,WNW,286,12.5,24.6,54,0.00,,CLR,0.00,VWS V14.00,2013-01-22 01:10:00,
2013-01-21 19:20:00,6.4,-6.7,30.23,West,270,9.8,21.0,54,0.00,,CLR,0.00,VWS V14.00,2013-01-22 01:20:00,
2013-01-21 19:30:00,6.3,-6.8,30.23,West,271,16.6,21.9,54,0.00,,CLR,0.00,VWS V14.00,2013-01-22 01:30:00,
2013-01-21 19:40:00,6.3,-6.8,30.23,WSW,249,10.7,24.6,54,0.00,,CLR,0.00,VWS V14.00,2013-01-22 01:40:00,
2013-01-21 19:50:00,6.1,-7.0,30.23,WNW,282,11.6,22.8,54,0.00,,CLR,0.00,VWS V14.00,2013-01-22 01:50:00,
2013-01-21 20:00:00,6.1,-7.0,30.23,West,273,17.4,21.9,54,0.00,,CLR,0.00,VWS V14.00,2013-01-22 02:00:00,
2013-01-21 20:10:00,5.9,-7.2,30.23,WNW,283,12.5,19.2,54,0.00,,CLR,0.00,VWS V14.00,2013-01-22 02:10:00,
2013-01-21 20:20:00,5.9,-7.2,30.23,West,280,17.4,24.6,54,0.00,,CLR,0.00,VWS V14.00,2013-01-22 02:20:00,
2013-01-21 20:30:00,5.5,-7.5,30.23,WSW,254,11.6,24.6,54,0.00,,CLR,0.00,VWS V14.00,2013-01-22 02:30:00,
2013-01-21 20:40:00,5.5,-7.5,30.23,WNW,282,16.6,16.6,54,0.00,,CLR,0.00,VWS V14.00,2013-01-22 02:40:00,
2013-01-21 20:50:00,5.4,-7.7,30.23,WNW,299,10.7,21.0,54,0.00,,CLR,0.00,VWS V14.00,2013-01-22 02:50:00,
2013-01-21 21:00:00,5.4,-7.7,30.26,West,278,6.3,15.2,54,0.00,,CLR,0.00,VWS V14.00,2013-01-22 03:00:00,
2013-01-21 21:10:00,5.4,-7.7,30.26,West,275,8.1,15.2,54,0.00,,CLR,0.00,VWS V14.00,2013-01-22 03:10:00,
2013-01-21 21:20:00,5.4,-7.7,30.26,WNW,285,9.8,17.4,54,0.00,,CLR,0.00,VWS V14.00,2013-01-22 03:20:00,
2013-01-21 21:30:00,5.4,-7.7,30.26,NW,313,6.3,15.2,54,0.00,,CLR,0.00,VWS V14.00,2013-01-22 03:30:00,
2013-01-21 21:40:00,5.4,-7.7,30.26,West,273,7.2,13.4,54,0.00,,CLR,0.00,VWS V14.00,2013-01-22 03:40:00,
2013-01-21 21:50:00,5.4,-7.7,30.26,West,267,10.7,16.6,54,0.00,,CLR,0.00,VWS V14.00,2013-01-22 03:50:00,
2013-01-21 22:00:00,4.8,-8.2,30.26,West,277,7.2,11.6,54,0.00,,CLR,0.00,VWS V14.00,2013-01-22 04:00:00,
2013-01-21 22:10:00,5.0,-8.0,30.26,WNW,284,9.8,17.4,54,0.00,,CLR,0.00,VWS V14.00,2013-01-22 04:10:00,
2013-01-21 22:20:00,5.0,-8.0,30.26,WNW,285,10.7,16.6,54,0.00,,CLR,0.00,VWS V14.00,2013-01-22 04:20:00,
2013-01-21 22:30:00,5.0,-8.0,30.26,WNW,283,8.1,17.4,54,0.00,,CLR,0.00,VWS V14.00,2013-01-22 04:30:00,
2013-01-21 22:40:00,5.0,-8.0,30.26,WNW,282,12.5,16.6,54,0.00,,CLR,0.00,VWS V14.00,2013-01-22 04:40:00,
2013-01-21 22:50:00,5.0,-8.0,30.26,WNW,285,8.1,21.9,54,0.00,,CLR,0.00,VWS V14.00,2013-01-22 04:50:00,
2013-01-21 23:10:00,5.0,-8.0,30.26,WNW,285,10.7,15.2,54,0.00,,CLR,0.00,VWS V14.00,2013-01-22 05:10:00,
2013-01-21 23:20:00,5.0,-8.0,30.26,West,267,10.7,15.2,54,0.00,,CLR,0.00,VWS V14.00,2013-01-22 05:20:00,
2013-01-21 23:30:00,4.6,-8.3,30.26,WNW,288,9.8,18.3,54,0.00,,CLR,0.00,VWS V14.00,2013-01-22 05:30:00,
2013-01-21 23:40:00,4.6,-8.3,30.26,West,274,9.8,16.1,54,0.00,,CLR,0.00,VWS V14.00,2013-01-22 05:40:00,
2013-01-21 23:50:00,4.6,-8.3,30.26,WNW,286,8.1,16.1,54,0.00,,CLR,0.00,VWS V14.00,2013-01-22 05:50:00,